Location: Ferchesar
(52.6477°N, 12.4298°E)
Time: 02:34:07
(UTC+01:00)

Tiros 1 - Pass Details

Date: 04 December 2021
Orbit: 629 x 664 km, 48.4° (Epoch: 21 January)

Event Time Altitude Azimuth Distance (km) Brightness Sun altitude
Rises 18:07:29 0° 203° (SSW) 2,912 11.0 -18.6°
Reaches altitude 10° 18:10:29 10° 183° (S) 2,013 9.9 -19.0°
Maximum altitude 18:13:24 17° 144° (SE) 1,623 9.0 -19.5°
Enters shadow 18:13:28 17° 143° (SE) 1,624 8.9 -19.5°
Drops below altitude 10° 18:16:22 10° 104° (ESE) 2,032 - -19.9°
Sets 18:19:25 0° 84° (E) 2,952 - -20.4°
